Year,Month,Day,Hour,Minute,Value (Times are PST for temperature in C)
2018,04,26,00,00,9.40
2018,04,26,00,01,9.40
2018,04,26,00,02,9.40
2018,04,26,00,03,9.40
2018,04,26,00,04,9.40
2018,04,26,00,05,9.40
2018,04,26,00,06,9.40
2018,04,26,00,07,9.40
2018,04,26,00,08,9.40
2018,04,26,00,09,9.40
2018,04,26,00,10,9.40
2018,04,26,00,11,9.30
2018,04,26,00,12,9.30
2018,04,26,00,13,9.30
2018,04,26,00,14,9.30
2018,04,26,00,15,9.30
2018,04,26,00,16,9.30
2018,04,26,00,17,9.30
2018,04,26,00,18,9.20
2018,04,26,00,19,9.20
2018,04,26,00,20,9.20
2018,04,26,00,21,9.20
2018,04,26,00,22,9.20
2018,04,26,00,23,9.20
2018,04,26,00,24,9.20
2018,04,26,00,25,9.20
2018,04,26,00,26,9.20
2018,04,26,00,27,9.20
2018,04,26,00,28,9.10
2018,04,26,00,29,9.10
2018,04,26,00,30,9.10
2018,04,26,00,31,9.10
2018,04,26,00,32,9.10
2018,04,26,00,33,9.00
2018,04,26,00,34,9.00
2018,04,26,00,35,9.00
2018,04,26,00,36,9.00
2018,04,26,00,37,9.00
2018,04,26,00,38,9.00
2018,04,26,00,39,9.00
2018,04,26,00,40,9.00
2018,04,26,00,41,9.00
2018,04,26,00,42,8.90
2018,04,26,00,43,8.90
2018,04,26,00,44,8.90
2018,04,26,00,45,8.90
2018,04,26,00,46,8.90
2018,04,26,00,47,8.80
2018,04,26,00,48,8.80
2018,04,26,00,49,8.80
2018,04,26,00,50,8.80
2018,04,26,00,51,8.80
2018,04,26,00,52,8.80
2018,04,26,00,53,8.70
2018,04,26,00,54,8.70
2018,04,26,00,55,8.70
2018,04,26,00,56,8.70
2018,04,26,00,57,8.60
2018,04,26,00,58,8.60
2018,04,26,00,59,8.60
2018,04,26,01,00,8.60
2018,04,26,01,01,8.50
2018,04,26,01,02,8.50
2018,04,26,01,03,8.50
2018,04,26,01,04,8.40
2018,04,26,01,05,8.40
2018,04,26,01,06,8.40
2018,04,26,01,07,8.40
2018,04,26,01,08,8.30
2018,04,26,01,09,8.30
2018,04,26,01,10,8.30
2018,04,26,01,11,8.30
2018,04,26,01,12,8.30
2018,04,26,01,13,8.30
2018,04,26,01,14,8.30
2018,04,26,01,15,8.30
2018,04,26,01,16,8.30
2018,04,26,01,17,8.20
2018,04,26,01,18,8.20
2018,04,26,01,19,8.20
2018,04,26,01,20,8.20
2018,04,26,01,21,8.20
2018,04,26,01,22,8.20
2018,04,26,01,23,8.20
2018,04,26,01,24,8.20
2018,04,26,01,25,8.20
2018,04,26,01,26,8.10
2018,04,26,01,27,8.10
2018,04,26,01,28,8.00
2018,04,26,01,29,8.00
2018,04,26,01,30,7.90
2018,04,26,01,31,7.90
2018,04,26,01,32,7.90
2018,04,26,01,33,7.90
2018,04,26,01,34,7.90
2018,04,26,01,35,7.90
2018,04,26,01,36,7.80
2018,04,26,01,37,7.80
2018,04,26,01,38,7.80
2018,04,26,01,39,7.80
2018,04,26,01,40,7.80
2018,04,26,01,41,7.80
2018,04,26,01,42,7.80
2018,04,26,01,43,7.90
2018,04,26,01,44,7.90
2018,04,26,01,45,7.90
2018,04,26,01,46,7.90
2018,04,26,01,47,7.90
2018,04,26,01,48,7.90
2018,04,26,01,49,7.90
2018,04,26,01,50,7.90
2018,04,26,01,51,7.90
2018,04,26,01,52,7.90
2018,04,26,01,53,7.90
2018,04,26,01,54,7.90
2018,04,26,01,55,7.80
2018,04,26,01,56,7.80
2018,04,26,01,57,7.80
2018,04,26,01,58,7.80
2018,04,26,01,59,7.80
2018,04,26,02,00,7.80
2018,04,26,02,01,7.80
2018,04,26,02,02,7.80
2018,04,26,02,03,7.80
2018,04,26,02,04,7.80
2018,04,26,02,05,7.80
2018,04,26,02,06,7.80
2018,04,26,02,07,7.80
2018,04,26,02,08,7.80
2018,04,26,02,09,7.70
2018,04,26,02,10,7.70
2018,04,26,02,11,7.70
2018,04,26,02,12,7.70
2018,04,26,02,13,7.70
2018,04,26,02,14,7.60
2018,04,26,02,15,7.60
2018,04,26,02,16,7.60
2018,04,26,02,17,7.60
2018,04,26,02,18,7.60
2018,04,26,02,19,7.60
2018,04,26,02,20,7.60
2018,04,26,02,21,7.60
2018,04,26,02,22,7.60
2018,04,26,02,23,7.60
2018,04,26,02,24,7.60
2018,04,26,02,25,7.60
2018,04,26,02,26,7.60
2018,04,26,02,27,7.60
2018,04,26,02,28,7.60
2018,04,26,02,29,7.60
2018,04,26,02,30,7.60
2018,04,26,02,31,7.60
2018,04,26,02,32,7.60
2018,04,26,02,33,7.60
2018,04,26,02,34,7.60
2018,04,26,02,35,7.50
2018,04,26,02,36,7.50
2018,04,26,02,37,7.40
2018,04,26,02,38,7.40
2018,04,26,02,39,7.40
2018,04,26,02,40,7.40
2018,04,26,02,41,7.40
2018,04,26,02,42,7.30
2018,04,26,02,43,7.30
2018,04,26,02,44,7.30
2018,04,26,02,45,7.30
2018,04,26,02,46,7.30
2018,04,26,02,47,7.30
2018,04,26,02,48,7.30
2018,04,26,02,49,7.30
2018,04,26,02,50,7.30
2018,04,26,02,51,7.20
2018,04,26,02,52,7.20
2018,04,26,02,53,7.20
2018,04,26,02,54,7.20
2018,04,26,02,55,7.10
2018,04,26,02,56,7.10
2018,04,26,02,57,7.10
2018,04,26,02,58,7.10
2018,04,26,02,59,7.10
2018,04,26,03,00,7.10
2018,04,26,03,01,7.00
2018,04,26,03,02,7.00
2018,04,26,03,03,7.00
2018,04,26,03,04,7.00
2018,04,26,03,05,6.90
2018,04,26,03,06,6.90
2018,04,26,03,07,6.90
2018,04,26,03,08,6.90
2018,04,26,03,09,6.90
2018,04,26,03,10,6.80
2018,04,26,03,11,6.80
2018,04,26,03,12,6.80
2018,04,26,03,13,6.80
2018,04,26,03,14,6.80
2018,04,26,03,15,6.80
2018,04,26,03,16,6.80
2018,04,26,03,17,6.80
2018,04,26,03,18,6.80
2018,04,26,03,19,6.80
2018,04,26,03,20,6.80
2018,04,26,03,21,6.70
2018,04,26,03,22,6.70
2018,04,26,03,23,6.70
2018,04,26,03,24,6.70
2018,04,26,03,25,6.70
2018,04,26,03,26,6.70
2018,04,26,03,27,6.70
2018,04,26,03,28,6.70
2018,04,26,03,29,6.60
2018,04,26,03,30,6.60
2018,04,26,03,31,6.60
2018,04,26,03,32,6.60
2018,04,26,03,33,6.60
2018,04,26,03,34,6.50
2018,04,26,03,35,6.50
2018,04,26,03,36,6.60
2018,04,26,03,37,6.60
2018,04,26,03,38,6.60
2018,04,26,03,39,6.60
2018,04,26,03,40,6.60
2018,04,26,03,41,6.60
2018,04,26,03,42,6.60
2018,04,26,03,43,6.60
2018,04,26,03,44,6.60
2018,04,26,03,45,6.50
2018,04,26,03,46,6.50
2018,04,26,03,47,6.50
2018,04,26,03,48,6.50
2018,04,26,03,49,6.50
2018,04,26,03,50,6.50
2018,04,26,03,51,6.50
2018,04,26,03,52,6.50
2018,04,26,03,53,6.50
2018,04,26,03,54,6.50
2018,04,26,03,55,6.50
2018,04,26,03,56,6.50
2018,04,26,03,57,6.50
2018,04,26,03,58,6.50
2018,04,26,03,59,6.50
2018,04,26,04,00,6.40
2018,04,26,04,01,6.40
2018,04,26,04,02,6.40
2018,04,26,04,03,6.40
2018,04,26,04,04,6.40
2018,04,26,04,05,6.40
2018,04,26,04,06,6.40
2018,04,26,04,07,6.40
2018,04,26,04,08,6.40
2018,04,26,04,09,6.40
2018,04,26,04,10,6.40
2018,04,26,04,11,6.50
2018,04,26,04,12,6.50
2018,04,26,04,13,6.50
2018,04,26,04,14,6.40
2018,04,26,04,15,6.40
2018,04,26,04,16,6.40
2018,04,26,04,17,6.40
2018,04,26,04,18,6.30
2018,04,26,04,19,6.30
2018,04,26,04,20,6.30
2018,04,26,04,21,6.40
2018,04,26,04,22,6.40
2018,04,26,04,23,6.40
2018,04,26,04,24,6.40
2018,04,26,04,25,6.40
2018,04,26,04,26,6.40
2018,04,26,04,27,6.40
2018,04,26,04,28,6.40
2018,04,26,04,29,6.40
2018,04,26,04,30,6.40
2018,04,26,04,31,6.50
2018,04,26,04,32,6.50
2018,04,26,04,33,6.60
2018,04,26,04,34,6.60
2018,04,26,04,35,6.60
2018,04,26,04,36,6.60
2018,04,26,04,37,6.60
2018,04,26,04,38,6.60
2018,04,26,04,39,6.50
2018,04,26,04,40,6.50
2018,04,26,04,41,6.50
2018,04,26,04,42,6.50
2018,04,26,04,43,6.50
2018,04,26,04,44,6.50
2018,04,26,04,45,6.50
2018,04,26,04,46,6.40
2018,04,26,04,47,6.40
2018,04,26,04,48,6.40
2018,04,26,04,49,6.40
2018,04,26,04,50,6.40
2018,04,26,04,51,6.40
2018,04,26,04,52,6.40
2018,04,26,04,53,6.40
2018,04,26,04,54,6.40
2018,04,26,04,55,6.40
2018,04,26,04,56,6.40
2018,04,26,04,57,6.40
2018,04,26,04,58,6.40
2018,04,26,04,59,6.40
2018,04,26,05,00,6.40
2018,04,26,05,01,6.40
2018,04,26,05,02,6.50
2018,04,26,05,03,6.50
2018,04,26,05,04,6.60
2018,04,26,05,05,6.60
2018,04,26,05,06,6.70
2018,04,26,05,07,6.70
2018,04,26,05,08,6.70
2018,04,26,05,09,6.80
2018,04,26,05,10,6.90
2018,04,26,05,11,6.90
2018,04,26,05,12,7.00
2018,04,26,05,13,7.00
2018,04,26,05,14,7.00
2018,04,26,05,15,7.00
2018,04,26,05,16,6.90
2018,04,26,05,17,6.90
2018,04,26,05,18,6.90
2018,04,26,05,19,6.80
2018,04,26,05,20,6.80
2018,04,26,05,21,6.70
2018,04,26,05,22,6.70
2018,04,26,05,23,6.60
2018,04,26,05,24,6.60
2018,04,26,05,25,6.60
2018,04,26,05,26,6.50
2018,04,26,05,27,6.50
2018,04,26,05,28,6.60
2018,04,26,05,29,6.60
2018,04,26,05,30,6.70
2018,04,26,05,31,6.80
2018,04,26,05,32,6.80
2018,04,26,05,33,6.90
2018,04,26,05,34,7.00
2018,04,26,05,35,7.10
2018,04,26,05,36,7.20
2018,04,26,05,37,7.30
2018,04,26,05,38,7.50
2018,04,26,05,39,7.70
2018,04,26,05,40,7.90
2018,04,26,05,41,8.10
2018,04,26,05,42,8.30
2018,04,26,05,43,8.60
2018,04,26,05,44,8.80
2018,04,26,05,45,9.00
2018,04,26,05,46,9.20
2018,04,26,05,47,9.30
2018,04,26,05,48,9.40
2018,04,26,05,49,9.40
2018,04,26,05,50,9.30
2018,04,26,05,51,9.20
2018,04,26,05,52,9.10
2018,04,26,05,53,9.00
2018,04,26,05,54,8.90
2018,04,26,05,55,8.90
2018,04,26,05,56,8.80
2018,04,26,05,57,8.80
2018,04,26,05,58,8.80
2018,04,26,05,59,8.70
2018,04,26,06,00,8.70
2018,04,26,06,01,8.60
2018,04,26,06,02,8.60
2018,04,26,06,03,8.50
2018,04,26,06,04,8.50
2018,04,26,06,05,8.40
2018,04,26,06,06,8.40
2018,04,26,06,07,8.30
2018,04,26,06,08,8.30
2018,04,26,06,09,8.30
2018,04,26,06,10,8.30
2018,04,26,06,11,8.30
2018,04,26,06,12,8.20
2018,04,26,06,13,8.30
2018,04,26,06,14,8.30
2018,04,26,06,15,8.30
2018,04,26,06,16,8.30
2018,04,26,06,17,8.40
2018,04,26,06,18,8.50
2018,04,26,06,19,8.50
2018,04,26,06,20,8.60
2018,04,26,06,21,8.60
2018,04,26,06,22,8.70
2018,04,26,06,23,8.80
2018,04,26,06,24,8.80
2018,04,26,06,25,8.90
2018,04,26,06,26,9.00
2018,04,26,06,27,9.10
2018,04,26,06,28,9.10
2018,04,26,06,29,9.20
2018,04,26,06,30,9.30
2018,04,26,06,31,9.40
2018,04,26,06,32,9.60
2018,04,26,06,33,9.70
2018,04,26,06,34,9.70
2018,04,26,06,35,9.70
2018,04,26,06,36,9.70
2018,04,26,06,37,9.60
2018,04,26,06,38,9.60
2018,04,26,06,39,9.60
2018,04,26,06,40,9.60
2018,04,26,06,41,9.60
2018,04,26,06,42,9.60
2018,04,26,06,43,9.60
2018,04,26,06,44,9.80
2018,04,26,06,45,9.80
2018,04,26,06,46,9.80
2018,04,26,06,47,9.80
2018,04,26,06,48,9.80
2018,04,26,06,49,9.70
2018,04,26,06,50,9.70
2018,04,26,06,51,9.70
2018,04,26,06,52,9.80
2018,04,26,06,53,9.80
2018,04,26,06,54,9.90
2018,04,26,06,55,9.90
2018,04,26,06,56,10.00
2018,04,26,06,57,10.00
2018,04,26,06,58,10.00
2018,04,26,06,59,10.10
2018,04,26,07,00,10.10
2018,04,26,07,01,10.10
2018,04,26,07,02,10.10
2018,04,26,07,03,10.10
2018,04,26,07,04,10.20
2018,04,26,07,05,10.30
2018,04,26,07,06,10.30
2018,04,26,07,07,10.30
2018,04,26,07,08,10.30
2018,04,26,07,09,10.40
2018,04,26,07,10,10.50
2018,04,26,07,11,10.60
2018,04,26,07,12,10.70
2018,04,26,07,13,10.80
2018,04,26,07,14,11.00
2018,04,26,07,15,11.10
2018,04,26,07,16,11.20
2018,04,26,07,17,11.30
2018,04,26,07,18,11.40
2018,04,26,07,19,11.40
2018,04,26,07,20,11.40
2018,04,26,07,21,11.40
2018,04,26,07,22,11.50
2018,04,26,07,23,11.50
2018,04,26,07,24,11.60
2018,04,26,07,25,11.60
2018,04,26,07,26,11.70
2018,04,26,07,27,11.70
2018,04,26,07,28,11.70
2018,04,26,07,29,11.70
2018,04,26,07,30,11.80
2018,04,26,07,31,11.90
2018,04,26,07,32,12.00
2018,04,26,07,33,12.10
2018,04,26,07,34,12.20
2018,04,26,07,35,12.40
2018,04,26,07,36,12.50
2018,04,26,07,37,12.60
2018,04,26,07,38,12.80
2018,04,26,07,39,12.90
2018,04,26,07,40,13.20
2018,04,26,07,41,13.30
2018,04,26,07,42,13.50
2018,04,26,07,43,13.70
2018,04,26,07,44,13.80
2018,04,26,07,45,13.90
2018,04,26,07,46,14.10
2018,04,26,07,47,14.20
2018,04,26,07,48,14.30
2018,04,26,07,49,14.40
2018,04,26,07,50,14.50
2018,04,26,07,51,14.70
2018,04,26,07,52,14.80
2018,04,26,07,53,14.80
2018,04,26,07,54,14.90
2018,04,26,07,55,15.00
2018,04,26,07,56,15.10
2018,04,26,07,57,15.20
2018,04,26,07,58,15.30
2018,04,26,07,59,15.40
2018,04,26,08,00,15.50
2018,04,26,08,01,15.50
2018,04,26,08,02,15.60
2018,04,26,08,03,15.60
2018,04,26,08,04,15.70
2018,04,26,08,05,15.70
2018,04,26,08,06,15.80
2018,04,26,08,07,15.90
2018,04,26,08,08,15.90
2018,04,26,08,09,16.00
2018,04,26,08,10,16.00
2018,04,26,08,11,16.10
2018,04,26,08,12,16.10
2018,04,26,08,13,16.20
2018,04,26,08,14,16.20
2018,04,26,08,15,16.30
2018,04,26,08,16,16.30
2018,04,26,08,17,16.40
2018,04,26,08,18,16.40
2018,04,26,08,19,16.50
2018,04,26,08,20,16.60
2018,04,26,08,21,16.60
2018,04,26,08,22,16.60
2018,04,26,08,23,16.70
2018,04,26,08,24,16.70
2018,04,26,08,25,16.70
2018,04,26,08,26,16.80
2018,04,26,08,27,16.80
2018,04,26,08,28,16.80
2018,04,26,08,29,16.90
2018,04,26,08,30,16.90
2018,04,26,08,31,16.90
2018,04,26,08,32,17.00
2018,04,26,08,33,17.00
2018,04,26,08,34,17.00
2018,04,26,08,35,17.10
2018,04,26,08,36,17.10
2018,04,26,08,37,17.10
2018,04,26,08,38,17.10
2018,04,26,08,39,17.10
2018,04,26,08,40,17.10
2018,04,26,08,41,17.10
2018,04,26,08,42,17.10
2018,04,26,08,43,17.10
2018,04,26,08,44,17.10
2018,04,26,08,45,17.10
2018,04,26,08,46,17.10
2018,04,26,08,47,17.10
2018,04,26,08,48,17.10
2018,04,26,08,49,17.10
2018,04,26,08,50,17.10
2018,04,26,08,51,17.10
2018,04,26,08,52,17.10
2018,04,26,08,53,17.10
2018,04,26,08,54,17.10
2018,04,26,08,55,17.10
2018,04,26,08,56,17.10
2018,04,26,08,57,17.10
2018,04,26,08,58,17.10
2018,04,26,08,59,17.20
2018,04,26,09,00,17.20
2018,04,26,09,01,17.30
2018,04,26,09,02,17.30
2018,04,26,09,03,17.40
2018,04,26,09,04,17.50
2018,04,26,09,05,17.60
2018,04,26,09,06,17.60
2018,04,26,09,07,17.60
2018,04,26,09,08,17.70
2018,04,26,09,09,17.70
2018,04,26,09,10,17.70
2018,04,26,09,11,17.70
2018,04,26,09,12,17.70
2018,04,26,09,13,17.70
2018,04,26,09,14,17.70
2018,04,26,09,15,17.80
2018,04,26,09,16,17.80
2018,04,26,09,17,17.80
2018,04,26,09,18,17.90
2018,04,26,09,19,17.90
2018,04,26,09,20,17.90
2018,04,26,09,21,18.00
2018,04,26,09,22,18.00
2018,04,26,09,23,18.10
2018,04,26,09,24,18.10
2018,04,26,09,25,18.20
2018,04,26,09,26,18.20
2018,04,26,09,27,18.30
2018,04,26,09,28,18.40
2018,04,26,09,29,18.40
2018,04,26,09,30,18.40
2018,04,26,09,31,18.40
2018,04,26,09,32,18.30
2018,04,26,09,33,18.30
2018,04,26,09,34,18.30
2018,04,26,09,35,18.30
2018,04,26,09,36,18.30
2018,04,26,09,37,18.30
2018,04,26,09,38,18.30
2018,04,26,09,39,18.30
2018,04,26,09,40,18.30
2018,04,26,09,41,18.40
2018,04,26,09,42,18.40
2018,04,26,09,43,18.50
2018,04,26,09,44,18.50
2018,04,26,09,45,18.60
2018,04,26,09,46,18.60
2018,04,26,09,47,18.60
2018,04,26,09,48,18.60
2018,04,26,09,49,18.50
2018,04,26,09,50,18.50
2018,04,26,09,51,18.50
2018,04,26,09,52,18.50
2018,04,26,09,53,18.60
2018,04,26,09,54,18.70
2018,04,26,09,55,18.70
2018,04,26,09,56,18.70
2018,04,26,09,57,18.70
2018,04,26,09,58,18.80
2018,04,26,09,59,18.90
2018,04,26,10,00,18.90
2018,04,26,10,01,18.90
2018,04,26,10,02,18.90
2018,04,26,10,03,18.90
2018,04,26,10,04,19.00
2018,04,26,10,05,19.10
2018,04,26,10,06,19.20
2018,04,26,10,07,19.20
2018,04,26,10,08,19.20
2018,04,26,10,09,19.20
2018,04,26,10,10,19.20
2018,04,26,10,11,19.20
2018,04,26,10,12,19.20
2018,04,26,10,13,19.20
2018,04,26,10,14,19.20
2018,04,26,10,15,19.10
2018,04,26,10,16,19.10
2018,04,26,10,17,19.10
2018,04,26,10,18,19.10
2018,04,26,10,19,19.10
2018,04,26,10,20,19.00
2018,04,26,10,21,19.00
2018,04,26,10,22,18.90
2018,04,26,10,23,18.90
2018,04,26,10,24,18.80
2018,04,26,10,25,18.80
2018,04,26,10,26,18.80
2018,04,26,10,27,18.80
2018,04,26,10,28,18.80
2018,04,26,10,29,18.70
2018,04,26,10,30,18.70
2018,04,26,10,31,18.60
2018,04,26,10,32,18.60
2018,04,26,10,33,18.60
2018,04,26,10,34,18.70
2018,04,26,10,35,18.70
2018,04,26,10,36,18.80
2018,04,26,10,37,18.80
2018,04,26,10,38,18.80
2018,04,26,10,39,18.80
2018,04,26,10,40,18.80
2018,04,26,10,41,18.80
2018,04,26,10,42,18.90
2018,04,26,10,43,18.90
2018,04,26,10,44,19.00
2018,04,26,10,45,19.00
2018,04,26,10,46,19.10
2018,04,26,10,47,19.10
2018,04,26,10,48,19.20
2018,04,26,10,49,19.20
2018,04,26,10,50,19.30
2018,04,26,10,51,19.30
2018,04,26,10,52,19.40
2018,04,26,10,53,19.40
2018,04,26,10,54,19.50
2018,04,26,10,55,19.50
2018,04,26,10,56,19.50
2018,04,26,10,57,19.40
2018,04,26,10,58,19.40
2018,04,26,10,59,19.40
2018,04,26,11,00,19.40
2018,04,26,11,01,19.40
2018,04,26,11,02,19.40
2018,04,26,11,03,19.50
2018,04,26,11,04,19.50
2018,04,26,11,05,19.60
2018,04,26,11,06,19.60
2018,04,26,11,07,19.60
2018,04,26,11,08,19.60
2018,04,26,11,09,19.60
2018,04,26,11,10,19.60
2018,04,26,11,11,19.60
2018,04,26,11,12,19.60
2018,04,26,11,13,19.60
2018,04,26,11,14,19.50
2018,04,26,11,15,19.50
2018,04,26,11,16,19.50
2018,04,26,11,17,19.60
2018,04,26,11,18,19.60
2018,04,26,11,19,19.60
2018,04,26,11,20,19.70
2018,04,26,11,21,19.70
2018,04,26,11,22,19.70
2018,04,26,11,23,19.70
2018,04,26,11,24,19.70
2018,04,26,11,25,19.70
2018,04,26,11,26,19.80
2018,04,26,11,27,19.80
2018,04,26,11,28,19.80
2018,04,26,11,29,19.90
2018,04,26,11,30,19.90
2018,04,26,11,31,19.90
2018,04,26,11,32,19.90
2018,04,26,11,33,19.80
2018,04,26,11,34,19.90
2018,04,26,11,35,19.90
2018,04,26,11,36,20.00
2018,04,26,11,37,20.00
2018,04,26,11,38,20.10
2018,04,26,11,39,20.20
2018,04,26,11,40,20.20
2018,04,26,11,41,20.20
2018,04,26,11,42,20.20
2018,04,26,11,43,20.20
2018,04,26,11,44,20.10
2018,04,26,11,45,20.00
2018,04,26,11,46,20.00
2018,04,26,11,47,20.00
2018,04,26,11,48,19.90
2018,04,26,11,49,19.90
2018,04,26,11,50,19.90
2018,04,26,11,51,19.80
2018,04,26,11,52,19.80
2018,04,26,11,53,19.80
2018,04,26,11,54,19.90
2018,04,26,11,55,19.90
2018,04,26,11,56,20.00
2018,04,26,11,57,20.10
2018,04,26,11,58,20.20
2018,04,26,11,59,20.20
2018,04,26,12,00,20.20
2018,04,26,12,01,20.30
2018,04,26,12,02,20.30
2018,04,26,12,03,20.20
2018,04,26,12,04,20.30
2018,04,26,12,05,20.30
2018,04,26,12,06,20.30
2018,04,26,12,07,20.40
2018,04,26,12,08,20.30
2018,04,26,12,09,20.30
2018,04,26,12,10,20.30
2018,04,26,12,11,20.30
2018,04,26,12,12,20.40
2018,04,26,12,13,20.50
2018,04,26,12,14,20.60
2018,04,26,12,15,20.70
2018,04,26,12,16,20.70
2018,04,26,12,17,20.70
2018,04,26,12,18,20.70
2018,04,26,12,19,20.70
2018,04,26,12,20,20.60
2018,04,26,12,21,20.60
2018,04,26,12,22,20.60
2018,04,26,12,23,20.60
2018,04,26,12,24,20.60
2018,04,26,12,25,20.70
2018,04,26,12,26,20.70
2018,04,26,12,27,20.80
2018,04,26,12,28,20.80
2018,04,26,12,29,20.80
2018,04,26,12,30,20.80
2018,04,26,12,31,20.80
2018,04,26,12,32,20.80
2018,04,26,12,33,20.80
2018,04,26,12,34,20.80
2018,04,26,12,35,20.80
2018,04,26,12,36,20.80
2018,04,26,12,37,20.80
2018,04,26,12,38,20.70
2018,04,26,12,39,20.70
2018,04,26,12,40,20.70
2018,04,26,12,41,20.70
2018,04,26,12,42,20.70
2018,04,26,12,43,20.70
2018,04,26,12,44,20.70
2018,04,26,12,45,20.80
2018,04,26,12,46,20.80
2018,04,26,12,47,20.80
2018,04,26,12,48,20.80
2018,04,26,12,49,20.80
2018,04,26,12,50,20.80
2018,04,26,12,51,20.70
2018,04,26,12,52,20.70
2018,04,26,12,53,20.70
2018,04,26,12,54,20.80
2018,04,26,12,55,20.90
2018,04,26,12,56,20.90
2018,04,26,12,57,21.00
2018,04,26,12,58,21.00
2018,04,26,12,59,21.10
2018,04,26,13,00,21.20
2018,04,26,13,01,21.30
2018,04,26,13,02,21.40
2018,04,26,13,03,21.50
2018,04,26,13,04,21.60
2018,04,26,13,05,21.60
2018,04,26,13,06,21.60
2018,04,26,13,07,21.60
2018,04,26,13,08,21.60
2018,04,26,13,09,21.50
2018,04,26,13,10,21.50
2018,04,26,13,11,21.40
2018,04,26,13,12,21.30
2018,04,26,13,13,21.30
2018,04,26,13,14,21.30
2018,04,26,13,15,21.30
2018,04,26,13,16,21.30
2018,04,26,13,17,21.30
2018,04,26,13,18,21.30
2018,04,26,13,19,21.30
2018,04,26,13,20,21.30
2018,04,26,13,21,21.40
2018,04,26,13,22,21.40
2018,04,26,13,23,21.50
2018,04,26,13,24,21.60
2018,04,26,13,25,21.60
2018,04,26,13,26,21.70
2018,04,26,13,27,21.70
2018,04,26,13,28,21.70
2018,04,26,13,29,21.70
2018,04,26,13,30,21.70
2018,04,26,13,31,21.60
2018,04,26,13,32,21.60
2018,04,26,13,33,21.50
2018,04,26,13,34,21.50
2018,04,26,13,35,21.50
2018,04,26,13,36,21.50
2018,04,26,13,37,21.60
2018,04,26,13,38,21.60
2018,04,26,13,39,21.60
2018,04,26,13,40,21.70
2018,04,26,13,41,21.70
2018,04,26,13,42,21.80
2018,04,26,13,43,21.80
2018,04,26,13,44,21.80
2018,04,26,13,45,21.80
2018,04,26,13,46,21.70
2018,04,26,13,47,21.70
2018,04,26,13,48,21.80
2018,04,26,13,49,21.80
2018,04,26,13,50,21.70
2018,04,26,13,51,21.70
2018,04,26,13,52,21.70
2018,04,26,13,53,21.70
2018,04,26,13,54,21.60
2018,04,26,13,55,21.70
2018,04,26,13,56,21.70
2018,04,26,13,57,21.70
2018,04,26,13,58,21.70
2018,04,26,13,59,21.60
2018,04,26,14,00,21.60
2018,04,26,14,01,21.60
2018,04,26,14,02,21.60
2018,04,26,14,03,21.70
2018,04,26,14,04,21.70
2018,04,26,14,05,21.60
2018,04,26,14,06,21.60
2018,04,26,14,07,21.60
2018,04,26,14,08,21.70
2018,04,26,14,09,21.60
2018,04,26,14,10,21.60
2018,04,26,14,11,21.60
2018,04,26,14,12,21.60
2018,04,26,14,13,21.70
2018,04,26,14,14,21.70
2018,04,26,14,15,21.80
2018,04,26,14,16,21.80
2018,04,26,14,17,21.90
2018,04,26,14,18,21.90
2018,04,26,14,19,21.90
2018,04,26,14,20,21.90
2018,04,26,14,21,21.90
2018,04,26,14,22,22.00
2018,04,26,14,23,22.00
2018,04,26,14,24,22.00
2018,04,26,14,25,21.90
2018,04,26,14,26,21.90
2018,04,26,14,27,21.90
2018,04,26,14,28,21.90
2018,04,26,14,29,22.00
2018,04,26,14,30,22.00
2018,04,26,14,31,22.10
2018,04,26,14,32,22.10
2018,04,26,14,33,22.10
2018,04,26,14,34,22.20
2018,04,26,14,35,22.20
2018,04,26,14,36,22.20
2018,04,26,14,37,22.20
2018,04,26,14,38,22.30
2018,04,26,14,39,22.30
2018,04,26,14,40,22.30
2018,04,26,14,41,22.30
2018,04,26,14,42,22.40
2018,04,26,14,43,22.40
2018,04,26,14,44,22.40
2018,04,26,14,45,22.40
2018,04,26,14,46,22.40
2018,04,26,14,47,22.50
2018,04,26,14,48,22.50
2018,04,26,14,49,22.50
2018,04,26,14,50,22.50
2018,04,26,14,51,22.60
2018,04,26,14,52,22.60
2018,04,26,14,53,22.60
2018,04,26,14,54,22.70
2018,04,26,14,55,22.80
2018,04,26,14,56,22.80
2018,04,26,14,57,22.80
2018,04,26,14,58,22.70
2018,04,26,14,59,22.70
2018,04,26,15,00,22.70
2018,04,26,15,01,22.70
2018,04,26,15,02,22.70
2018,04,26,15,03,22.70
2018,04,26,15,04,22.70
2018,04,26,15,05,22.80
2018,04,26,15,06,22.80
2018,04,26,15,07,22.90
2018,04,26,15,08,23.00
2018,04,26,15,09,23.00
2018,04,26,15,10,23.00
2018,04,26,15,11,23.00
2018,04,26,15,12,23.00
2018,04,26,15,13,23.00
2018,04,26,15,14,22.90
2018,04,26,15,15,22.90
2018,04,26,15,16,22.90
2018,04,26,15,17,22.90
2018,04,26,15,18,22.90
2018,04,26,15,19,22.80
2018,04,26,15,20,22.80
2018,04,26,15,21,22.70
2018,04,26,15,22,22.70
2018,04,26,15,23,22.60
2018,04,26,15,24,22.60
2018,04,26,15,25,22.70
2018,04,26,15,26,22.70
2018,04,26,15,27,22.80
2018,04,26,15,28,22.80
2018,04,26,15,29,22.80
2018,04,26,15,30,22.80
2018,04,26,15,31,22.90
2018,04,26,15,32,23.00
2018,04,26,15,33,23.10
2018,04,26,15,34,23.20
2018,04,26,15,35,23.10
2018,04,26,15,36,23.10
2018,04,26,15,37,23.10
2018,04,26,15,38,23.00
2018,04,26,15,39,23.00
2018,04,26,15,40,22.90
2018,04,26,15,41,22.90
2018,04,26,15,42,23.00
2018,04,26,15,43,23.00
2018,04,26,15,44,23.00
2018,04,26,15,45,23.10
2018,04,26,15,46,23.10
2018,04,26,15,47,23.10
2018,04,26,15,48,23.10
2018,04,26,15,49,23.20
2018,04,26,15,50,23.20
2018,04,26,15,51,23.30
2018,04,26,15,52,23.30
2018,04,26,15,53,23.30
2018,04,26,15,54,23.40
2018,04,26,15,55,23.40
2018,04,26,15,56,23.40
2018,04,26,15,57,23.40
2018,04,26,15,58,23.40
2018,04,26,15,59,23.30
2018,04,26,16,00,23.30
2018,04,26,16,01,23.30
2018,04,26,16,02,23.30
2018,04,26,16,03,23.40
2018,04,26,16,04,23.40
2018,04,26,16,05,23.40
2018,04,26,16,06,23.50
2018,04,26,16,07,23.50
2018,04,26,16,08,23.60
2018,04,26,16,09,23.50
2018,04,26,16,10,23.50
2018,04,26,16,11,23.50
2018,04,26,16,12,23.50
2018,04,26,16,13,23.40
2018,04,26,16,14,23.40
2018,04,26,16,15,23.40
2018,04,26,16,16,23.30
2018,04,26,16,17,23.30
2018,04,26,16,18,23.30
2018,04,26,16,19,23.20
2018,04,26,16,20,23.20
2018,04,26,16,21,23.20
2018,04,26,16,22,23.20
2018,04,26,16,23,23.30
2018,04,26,16,24,23.30
2018,04,26,16,25,23.40
2018,04,26,16,26,23.40
2018,04,26,16,27,23.50
2018,04,26,16,28,23.50
2018,04,26,16,29,23.50
2018,04,26,16,30,23.60
2018,04,26,16,31,23.60
2018,04,26,16,32,23.60
2018,04,26,16,33,23.60
2018,04,26,16,34,23.60
2018,04,26,16,35,23.70
2018,04,26,16,36,23.70
2018,04,26,16,37,23.70
2018,04,26,16,38,23.60
2018,04,26,16,39,23.60
2018,04,26,16,40,23.60
2018,04,26,16,41,23.70
2018,04,26,16,42,23.70
2018,04,26,16,43,23.70
2018,04,26,16,44,23.70
2018,04,26,16,45,23.70
2018,04,26,16,46,23.70
2018,04,26,16,47,23.70
2018,04,26,16,48,23.70
2018,04,26,16,49,23.60
2018,04,26,16,50,23.60
2018,04,26,16,51,23.60
2018,04,26,16,52,23.50
2018,04,26,16,53,23.50
2018,04,26,16,54,23.50
2018,04,26,16,55,23.50
2018,04,26,16,56,23.60
2018,04,26,16,57,23.50
2018,04,26,16,58,23.50
2018,04,26,16,59,23.50
2018,04,26,17,00,23.50
2018,04,26,17,01,23.50
2018,04,26,17,02,23.50
2018,04,26,17,03,23.50
2018,04,26,17,04,23.50
2018,04,26,17,05,23.50
2018,04,26,17,06,23.50
2018,04,26,17,07,23.40
2018,04,26,17,08,23.40
2018,04,26,17,09,23.40
2018,04,26,17,10,23.40
2018,04,26,17,11,23.40
2018,04,26,17,12,23.40
2018,04,26,17,13,23.40
2018,04,26,17,14,23.40
2018,04,26,17,15,23.40
2018,04,26,17,16,23.40
2018,04,26,17,17,23.40
2018,04,26,17,18,23.50
2018,04,26,17,19,23.50
2018,04,26,17,20,23.50
2018,04,26,17,21,23.50
2018,04,26,17,22,23.50
2018,04,26,17,23,23.50
2018,04,26,17,24,23.50
2018,04,26,17,25,23.60
2018,04,26,17,26,23.60
2018,04,26,17,27,23.60
2018,04,26,17,28,23.60
2018,04,26,17,29,23.60
2018,04,26,17,30,23.60
2018,04,26,17,31,23.60
2018,04,26,17,32,23.60
2018,04,26,17,33,23.60
2018,04,26,17,34,23.60
2018,04,26,17,35,23.60
2018,04,26,17,36,23.60
2018,04,26,17,37,23.60